Location: Byhalia Creek
(34.8270°N, 89.8040°W)
Time: 17:12:16
(UTC+00:00)

OAO 3 Rocket - Pass Details

Date: 22 April 2026
Orbit: 613 x 659 km, 35.0° (Epoch: 9 May)

Event Time Altitude Azimuth Distance (km) Brightness Sun altitude
Rises 01:59:25 0° 275° (W) 2,890 7.8 -16.6°
Reaches altitude 10° 02:01:44 10° 275° (W) 1,990 6.7 -17.0°
Maximum altitude 02:06:22 88° 191° (S) 634 3.0 -17.8°
Enters shadow 02:08:18 36° 98° (E) 1,008 3.6 -18.2°
